Regional Weather Roundup
Issued by NWS

Home | Current Version | Previous Version | Graphics & Text | Print | Product List | Glossary On
Versions: 1 2 3 4 5 6 7 8 9 10 11 12 13 14 15 16 17 18 19 20 21 22 23 24 25 26 27 28 29 30 31 32 33 34 35 36 37 38 39 40 41 42 43 44 45 46 47 48 49 50
000
ASUS43 KMKX 201300
RWRWI

WISCONSIN REGIONAL WEATHER ROUNDUP
NATIONAL WEATHER SERVICE MILWAUKEE/SULLIVAN WI
800 AM CDT SUN MAY 20 2018

NOTE: "FAIR" INDICATES FEW OR NO CLOUDS BELOW 12,000 FEET WITH NO
SIGNIFICANT WEATHER AND/OR OBSTRUCTIONS TO VISIBILITY.

WIZ001-002-006>008-014>016-023>028-201400-
NORTHWEST WISCONSIN

CITY           SKY/WX    TMP DP  RH WIND       PRES   REMARKS
SUPERIOR ARPT  FAIR      40  40  99 S3        30.30R
ASHLAND        FAIR      43  38  82 CALM      30.30R
HAYWARD        FAIR      45  35  68 N5        30.27R
SIREN          FAIR      42  36  78 E5        30.27R
CUMBERLAND     FAIR      43  32  65 NE10      30.25S
RICE LAKE      FAIR      43  35  71 NE7       30.26S
CHETEK         FAIR      43  35  74 NE7       30.25S
LADYSMITH      FAIR      44  35  69 NE8       30.26S
EAU CLAIRE     NOT AVBL
MENOMONIE      FAIR      46  36  69 NE10      30.23S
NEW RICHMOND   FAIR      43  33  67 NE8       30.23S
OSCEOLA        FAIR      46  36  67 NE10      30.27F
$$

WIZ003>005-009-010-017-018-201400-
NORTH CENTRAL WISCONSIN

CITY           SKY/WX    TMP DP  RH WIND       PRES   REMARKS
MANITOWISH WTR FAIR      43  30  59 NE5       30.25S
ARBOR VITAE    FAIR      43  32  66 E3        30.25R
WOODRUFF       FAIR      43  32  66 E3        30.25R
RHINELANDER    FAIR      44  35  70 NE5       30.25R
EAGLE RIVER    FAIR      42  30  62 NE6       30.25R
LAND O LAKES   FAIR      42  31  66 NE5       30.27R
PHILLIPS       FAIR      42  35  75 NE7       30.25R
TOMAHAWK       FAIR      42  33  70 NE5       30.25R
MEDFORD        FAIR      40  35  81 NE13      30.22R WCI  33
MERRILL        FAIR      41  36  81 NE9       30.24S
$$

WIZ029-030-035-036-043>047-201400-
CENTRAL WISCONSIN

CITY           SKY/WX    TMP DP  RH WIND       PRES   REMARKS
WAUSAU         FAIR      44  36  73 NE8       30.21R
MOSINEE        PTSUNNY   45  37  76 NE8       30.22S
MARSHFIELD     FAIR      49  39  68 NE12      30.19S
STEVENS POINT  NOT AVBL
WAUPACA        CLOUDY    48  39  69 NE8       30.21S
WAUTOMA        LGT RAIN  47  43  86 NE5       30.21R
WISC RAPIDS    CLOUDY    49  38  65 NE6       30.21R
CAMP DOUGLAS   CLOUDY    46  46 100 E6        30.20R
$$

WIZ011>013-019>022-031-037>040-048>050-201400-
NORTHEAST WISCONSIN

CITY           SKY/WX    TMP DP  RH WIND       PRES   REMARKS
ANTIGO         FAIR      41  36  82 NE9       30.22S
SHAWANO        FAIR      47  38  72 N8        30.23R
OCONTO         FAIR      45  36  72 N8        30.23R
STURGEON BAY   FAIR      42  36  79 N17       30.23R
GREEN BAY      FAIR      45  38  76 NE8       30.22R
MANITOWOC      CLOUDY    44  38  79 N10       30.22R
APPLETON       CLOUDY    45  36  70 NE10      30.19R
CLINTONVILLE   FAIR      47  37  66 NE8       30.22S
OSHKOSH        CLOUDY    47  43  86 NE12      30.19S
$$

WIZ032>034-041-042-053>061-201400-
SOUTHWEST WISCONSIN

CITY           SKY/WX    TMP DP  RH WIND       PRES   REMARKS
LA CROSSE      CLOUDY    50  32  50 NE9       30.18S
SPARTA         LGT RAIN  46  45  97 E5        30.19S
VIROQUA        CLOUDY    47  47 100 E12       30.16F
BOSCOBEL       LGT RAIN  53  50  89 E9        30.16R
PRAIRIE DU CHI CLOUDY    55  50  85 CALM      30.14R
PLATTEVILLE    CLOUDY    50  50 100 E15G21    30.13R
$$

WIZ056-057-062-063-064-067-068-201400-
SOUTH CENTRAL WISCONSIN

CITY           SKY/WX    TMP DP  RH WIND       PRES   REMARKS
REEDSBURG      CLOUDY    47  45  92 NE12      30.19R
BARABOO/DELLS  CLOUDY    47  43  87 NE8       30.18R
LONE ROCK      CLOUDY    51  49  92 E10       30.17R
MINERAL POINT  LGT RAIN  50  50 100 E14       30.14F
MADISON        LGT RAIN  48  45  89 E13       30.17R
MIDDLETON      CLOUDY    50  48  92 NE5       30.18R
WATERTOWN      CLOUDY    47  47 100 NE7       30.17S
MONROE         LGT RAIN  46  45  93 N10       30.17R
JANESVILLE     LGT RAIN  48  43  81 SE14      30.15S
$$

WIZ051-052-058>065-066-070>072-201400-
SOUTHEAST WISCONSIN

CITY           SKY/WX    TMP DP  RH WIND       PRES   REMARKS
MILWAUKEE      PTSUNNY   45  41  86 N17G26    30.19R
WAUKESHA       CLOUDY    43  39  87 NE17      30.18R
MILWAUKEE/TIMM CLOUDY    45  37  76 NE18G25   30.20R
RACINE         CLOUDY    43  40  89 NE21G30   30.18S
BURLINGTON     CLOUDY    46  40  81 NE10      30.17R
KENOSHA        CLOUDY    45  40  82 NE16G23   30.18R
FOND DU LAC    CLOUDY    47  42  83 NE15      30.19F
SHEBOYGAN      CLOUDY    45  41  86 NE10      30.21R
WEST BEND      CLOUDY    45  43  93 NE10      30.19F
JUNEAU         CLOUDY    46  43  90 NE9       30.19F
$$

LSZ147-162-201400-
LAKE SUPERIOR

STATION/POSITION TIME  TEMP    WIND        PRES    WAVE
                       AIR SEA DIR/SP/G            HT/PER
                 (UTC) (F)     (DEG/KT/KT) (MB)    (FT/S)
W MID LAKE BUOY  1150   37 36  250/  6/  6 1025.6R   1/ 5
DEVILS ISLAND    1200   40     230/  5/  6 1026.1R
SAXON HARBOR     1240   41      CALM  /  2 1025.4R
$$

LMZ867-665-643>646-201400-
LAKE MICHIGAN

STATION/POSITION TIME  TEMP    WIND        PRES    WAVE
                       AIR SEA DIR/SP/G            HT/PER
                 (UTC) (F)     (DEG/KT/KT) (MB)    (FT/S)
NORTHPORT PIER   1240   41                 1023.7R
KEWAUNEE LAKESHO 1224   44     360/  7/ 10 1022.5
SHEBOYGAN LAKESH 1200   42      20/ 22/ 24 1022.7R
PORT WASHINGTON  1230   45      20/ 10/ 18 1023.7R
MILWAUKEE LAKESH 1250   42      20/ 19/ 22   N/A
KENOSHA   LAKESH 1200   43                 1021.3
$$

TC  - TEMPERATURE IN CELSIUS
VSB - VISIBILITY IN STATUTE MILES
WCI - WIND CHILL INDEX
HX  - HEAT INDEX





USA.gov is the U.S. government's official web portal to all federal, state and local government web resources and services.